Regional Weather Roundup
Issued by NWS

Home | Current Version | Previous Version | Text Only | Print | Product List | Glossary On
Versions: 1 2 3 4 5 6 7 8 9 10 11 12 13 14 15 16 17 18 19 20 21 22 23 24 25 26 27 28 29 30 31 32 33 34 35 36 37 38 39 40 41 42 43 44 45 46 47 48 49 50
000
ASUS43 KFSD 301602
RWRSD

WEATHER ROUNDUP FOR SOUTH DAKOTA
NATIONAL WEATHER SERVICE SIOUX FALLS SD
1100 AM CDT SAT APR 30 2016

NOTE: "FAIR" INDICATES FEW OR NO CLOUDS BELOW 12,000 FEET WITH NO
SIGNIFICANT WEATHER AND/OR OBSTRUCTIONS TO VISIBILITY.


SDZ001>005-009-010-012>017-301700-
NORTHWEST AND NORTH CENTRAL SOUTH DAKOTA

CITY           SKY/WX    TMP DP  RH WIND       PRES   REMARKS
BUFFALO          N/A     48  36  63 NE18      30.08R
FAITH            N/A     49  37  63 NE18      30.11R
MOBRIDGE       PTSUNNY   54  37  52 E14       30.11R
$$

SDZ012>016-024>037-041>051-057-063-072>074-301700-
SOUTHWEST AND SOUTH CENTRAL SOUTH DAKOTA

CITY           SKY/WX    TMP DP  RH WIND       PRES   REMARKS
RAPID CTY ARPT CLOUDY    43  37  79 N15       30.09R
PIERRE         CLOUDY    48  39  71 NE21      30.04S
CUSTER         FRZ RAIN  32  29  88 NE15G25   30.02R FOG     WCI  22
ELLSWORTH AFB  CLOUDY    43  39  86 N12       30.09
PHILIP         CLOUDY    48  38  68 NE22      30.05S
PINE RIDGE     LGT RAIN  39  35  86 N23G32    29.98F FOG
WINNER         LGT RAIN  44  39  82 NE17      29.96S
$$

SDZ004>011-016>023-039-040-301700-
NORTHEAST SOUTH DAKOTA

CITY           SKY/WX    TMP DP  RH WIND       PRES   REMARKS
ABERDEEN       CLOUDY    52  33  48 NE23G31   30.11R
WATERTOWN      CLOUDY    45  35  68 NE21G28   30.03S
BROOKINGS      CLOUDY    42  35  76 NE17      29.99R
SISSETON         N/A     51  33  50 E22G31    30.09F
$$

SDZ017-020-022-023-036>040-048>070-301700-
SOUTHEAST SOUTH DAKOTA

CITY           SKY/WX    TMP DP  RH WIND       PRES   REMARKS
SIOUX FALLS    LGT RAIN  42  38  85 NE18G26   29.94S FOG
HURON          CLOUDY    46  35  65 NE21G29   30.02R
MITCHELL       CLOUDY    46  38  73 NE18      29.98R
YANKTON        CLOUDY    43  39  87 NE21G30   29.86F
$$

ABBREVIATIONS USED IN REMARKS
   TC - TEMPERATURE IN CELSIUS
  WCI - WIND CHILL INDEX
   HX - HEAT INDEX
  VSB - VISIBILITY





USA.gov is the U.S. government's official web portal to all federal, state and local government web resources and services.